Weather History for KAPN - May, 2015

Change the Weather History Date:

Saturday, May 2, 2015

  Actual Average Record
Temperature  
Mean Temperature 54 °F 48 °F  
Max Temperature 72 °F 60 °F 86 °F (2001)
Min Temperature 36 °F 36 °F 20 °F (1966)
Degree Days  
Heating Degree Days 11 17  
Month to date heating degree days 23 34  
Since 1 July heating degree days 8164 7593  
Cooling Degree Days 0 0  
Month to date cooling degree days 0 0  
Year to date cooling degree days 0 2  
Growing Degree Days 4 (Base 50)    
Moisture  
Dew Point 39 °F    
Average Humidity 62    
Maximum Humidity 92    
Minimum Humidity 31    
Precipitation  
Precipitation 0.00 in 0.07 in 1.25 in (1962)
Month to date precipitation 0.00 0.15  
Year to date precipitation 4.89 7.38  
Snow  
Snow 0.00 in 0.00 in 0.70 in (1961)
Month to date snowfall 0.0 0.0  
Since 1 July snowfall 48.6 84.1  
Snow Depth 0.00 in    
Sea Level Pressure  
Sea Level Pressure 30.00 in    
Wind  
Wind Speed 5 mph (SSE)    
Max Wind Speed 16 mph    
Max Gust Speed 20 mph    
Visibility 10 miles    
Events      
T = Trace of Precipitation, MM = Missing Value Source: NWS Daily Summary

Daily Weather History Graph

Daily Weather History Graph

Search for Another Location

Airport or City:

Trip Planner

Search our weather history database for the weather conditions in past years. The results will help you decide how hot, cold, wet, or windy it might be!

Date:

Astronomy

May. 02, 2015 Rise Set
Actual Time 6:22 AM EDT 8:41 PM EDT
Civil Twilight 5:49 AM EDT 9:13 PM EDT
Nautical Twilight 5:09 AM EDT 9:54 PM EDT
Astronomical Twilight 4:24 AM EDT 10:39 PM EDT
Moon 7:20 PM EDT 5:45 AM EDT
Length of Visible Light 15h 23m
Length of Day
14h 18m
Waxing Gibbous, 98% of the Moon is Illuminated
May 2
Waxing Gibbous
May 3
Full
May 11
Last Quarter
May 18
New
May 25
First Quarter

Hourly Weather History & Observations

Time (EDT) Temp. Windchill Dew Point Humidity Pressure Visibility Wind Dir Wind Speed Gust Speed Precip Events Conditions
12:54 AM 43.0 °F - 37.9 °F 82% 30.05 in 10.0 mi Calm Calm - N/A   Clear
1:54 AM 42.1 °F - 37.9 °F 85% 30.05 in 10.0 mi Calm Calm - N/A   Clear
2:54 AM 42.1 °F 38.4 °F 37.9 °F 85% 30.05 in 10.0 mi SW 5.8 mph - N/A   Clear
3:54 AM 39.0 °F 36.8 °F 37.0 °F 93% 30.05 in 10.0 mi WSW 3.5 mph - N/A   Clear
4:54 AM 39.9 °F 36.7 °F 36.0 °F 86% 30.05 in 10.0 mi West 4.6 mph - N/A   Clear
5:54 AM 37.9 °F 35.5 °F 34.0 °F 86% 30.05 in 10.0 mi WSW 3.5 mph - N/A   Clear
6:54 AM 37.0 °F - 34.0 °F 89% 30.05 in 10.0 mi Calm Calm - N/A   Clear
7:54 AM 46.0 °F - 39.9 °F 79% 30.06 in 10.0 mi Calm Calm - N/A   Clear
8:54 AM 57.0 °F - 39.9 °F 53% 30.05 in 10.0 mi SW 5.8 mph - N/A   Clear
9:54 AM 62.1 °F - 39.9 °F 44% 30.04 in 10.0 mi SSW 5.8 mph - N/A   Clear
10:54 AM 66.9 °F - 41.0 °F 39% 30.02 in 10.0 mi Variable 3.5 mph - N/A   Clear
11:54 AM 70.0 °F - 37.9 °F 31% 30.01 in 10.0 mi Variable 4.6 mph - N/A   Clear
12:54 PM 68.0 °F - 42.1 °F 39% 30.00 in 10.0 mi ESE 12.7 mph - N/A   Clear
1:54 PM 70.0 °F - 41.0 °F 35% 29.98 in 10.0 mi East 11.5 mph - N/A   Partly Cloudy
2:54 PM 69.1 °F - 41.0 °F 36% 29.96 in 10.0 mi East 10.4 mph - N/A   Overcast
3:54 PM 71.1 °F - 39.9 °F 32% 29.95 in 10.0 mi SE 15.0 mph - N/A   Overcast
4:54 PM 70.0 °F - 39.9 °F 33% 29.94 in 10.0 mi SE 12.7 mph - N/A   Mostly Cloudy
5:54 PM 70.0 °F - 39.9 °F 33% 29.93 in 10.0 mi SE 10.4 mph - N/A   Partly Cloudy
6:54 PM 66.9 °F - 41.0 °F 39% 29.94 in 10.0 mi East 4.6 mph - N/A   Clear
7:54 PM 61.0 °F - 41.0 °F 48% 29.94 in 10.0 mi East 6.9 mph - N/A   Overcast
8:54 PM 53.1 °F - 39.0 °F 59% 29.94 in 10.0 mi East 3.5 mph - N/A   Scattered Clouds
9:54 PM 50.0 °F - 39.0 °F 66% 29.95 in 10.0 mi ESE 3.5 mph - N/A   Partly Cloudy
10:54 PM 46.9 °F - 39.0 °F 74% 29.95 in 10.0 mi Calm Calm - N/A   Clear
11:54 PM 43.0 °F - 37.9 °F 82% 29.94 in 10.0 mi Calm Calm - N/A   Clear